User: anonymous   Login
Location: Unspecified
(0.0000°N, 0.0000°E)
Time: 21:46:02
(UTC+00:00)
Language:

N. Korean satellite - Orbit

View from above orbital plane
View from above orbital plane
View from above satellite
View from above satellite

Ground track
Ground track

The orbit data is extracted from the following two-line orbital elements,

1 39026U 12072A   16338.14995814  .00001768  00000-0  72735-4 0  9994
2 39026  97.2361 356.6814 0042391 148.6902 211.6874 15.24617392220117
Epoch (UTC): 03 December 2016 03:35:56
Eccentricity: 0.0042391
inclination: 97.2361°
perigee height: 463 km
apogee height: 521 km
right ascension of ascending node: 356.6814°
argument of perigee: 148.6902°
revolutions per day: 15.24617392
mean anomaly at epoch: 211.6874°
orbit number at epoch: 22011

The dashed part of the orbit path shows where the satellite is in the earth's shadow,  

DLR